This is the latest recevied weather packets stored in our database for station/object KY0TEQ-13. If no packets are shown the sender has not sent any weather packets the latest 10 day(s).
| Time | Temp. | Humidity | Pressure | Rain* | Wind** | Luminosity | Snow |
|---|---|---|---|---|---|---|---|
| 1777500692 | 16.67° C | 13% | 1300.4 hPa | 0 mm | - | 534 W/m² | - |
| 1777500388 | 17.22° C | 13% | 1300.5 hPa | 0 mm | - | 547 W/m² | - |
| 1777500084 | 16.67° C | 14% | 1300.4 hPa | 0 mm | - | 560 W/m² | - |
| 1777497659 | 16.67° C | 14% | 1300.7 hPa | 0 mm | - | 654 W/m² | - |
| 1777496445 | 16.67° C | 13% | 1300.9 hPa | 0 mm | - | 730 W/m² | - |
| 1777495838 | 16.11° C | 15% | 1300.9 hPa | 0 mm | - | 636 W/m² | - |
| 1777495534 | 15.56° C | 16% | 1301 hPa | 0 mm | - | 519 W/m² | - |
| 1777494322 | 17.22° C | 14% | 1301.2 hPa | 0 mm | - | 536 W/m² | - |
| 1777493110 | 16.67° C | 13% | 1301 hPa | 0 mm | - | 610 W/m² | - |
| 1777492807 | 15.56° C | 14% | 1301.2 hPa | 0 mm | - | 805 W/m² | - |
| 1777492199 | 16.11° C | 12% | 1301.3 hPa | 0 mm | - | 812 W/m² | - |
| 1777491290 | 16.11° C | 11% | 1301.2 hPa | 0 mm | - | 792 W/m² | - |
| 1777490986 | 15.56° C | 13% | 1301.1 hPa | 0 mm | - | 778 W/m² | - |
| 1777490682 | 15° C | 12% | 1301.3 hPa | 0 mm | - | 198 W/m² | - |
| 1777490378 | 15.56° C | 15% | 1301.5 hPa | 0 mm | - | 164 W/m² | - |
| 1777490076 | 16.11° C | 15% | 1301.5 hPa | 0 mm | - | 832 W/m² | - |
| 1777489774 | 16.67° C | 14% | 1301.5 hPa | 0 mm | - | 802 W/m² | - |
| 1777487957 | 16.11° C | 13% | 1302.1 hPa | 0 mm | - | 745 W/m² | - |
| 1777487654 | 15° C | 17% | 1302 hPa | 0 mm | - | 922 W/m² | - |
| 1777487351 | 15.56° C | 16% | 1302 hPa | 0 mm | - | 929 W/m² | - |
| 1777486744 | 15° C | 18% | 1302.2 hPa | 0 mm | - | 834 W/m² | - |
| 1777486443 | 14.44° C | 18% | 1302.1 hPa | 0 mm | - | 855 W/m² | - |
| 1777486140 | 15° C | 17% | 1302.2 hPa | 0 mm | - | 186 W/m² | - |
| 1777485836 | 15° C | 19% | 1302.3 hPa | 0 mm | - | 858 W/m² | - |
| 1777485532 | 14.44° C | 18% | 1302.4 hPa | 0 mm | - | 789 W/m² | - |
* Rain latest hour (hover to see other rain measurements)
** Current wind speed in m/s (hover to see current wind gust speed)